Regional Weather Roundup
Issued by NWS Wakefield, VA

Home | Current Version | Previous Version | Graphics & Text | Print | Product List | Glossary On
Versions: 1 2 3 4 5 6 7 8 9 10 11 12 13 14 15 16 17 18 19 20 21 22 23 24 25 26 27 28 29 30 31 32 33 34 35 36 37 38 39 40 41 42 43 44 45 46 47 48
000
ASUS41 KAKQ 211510
RWRAKQ

REGIONAL WEATHER ROUNDUP
NATIONAL WEATHER SERVICE WAKEFIELD VA
1100 AM EDT TUE OCT 21 2014

Note: "fair" indicates few or no clouds below 12,000 feet with no
significant weather and/or obstructions to visibility. * = Denotes
station may not report precipitation (e.g., rain,snow,etc.),
thunder or fog.

VAZ042-051-052>054-056-211600-
NORTHERN VIRGINIA

CITY           SKY/WX    TMP DP  RH WIND       PRES   REMARKS
WASH NATIONAL  PTSUNNY   63  50  62 SE3       29.88F
DULLES         MOSUNNY   62  50  64 CALM      29.87F
FORT BELVOIR   PTSUNNY   62  52  69 VRB1      29.88F
QUANTICO       PTSUNNY   60  51  72 CALM      29.89F
FREDERICKSBRG* MOSUNNY   66  51  59 CALM      29.86F
STAFFORD*      CLOUDY    62  49  64 CALM      29.92S
WARRENTON      PTSUNNY   63  56  78 CALM      29.87F
CULPEPER*      MOSUNNY   64  52  63 CALM      29.88F
MANASSAS*      MOSUNNY   57  54  88 CALM      29.88
LEESBURG*      SUNNY     64  52  63 SW5       29.88F
WINCHESTER     PTSUNNY   64  43  45 W7        29.86F
FRONT ROYAL*   MOSUNNY   59  48  67 CALM      29.86F
LURAY*         MOSUNNY   61  52  72 S3        29.87F
$$

VAZ048-049-060>072-079>083-211600-
CENTRAL AND SOUTH CENTRAL VIRGINIA...AND NORTH CENTRAL NORTH CAROLINA

CITY           SKY/WX    TMP DP  RH WIND       PRES   REMARKS
RICHMOND       PTSUNNY   65  50  58 CALM      29.88F
CHESTERFIELD*  SUNNY    N/A N/A N/A W5        29.89F
PETERSBURG*    SUNNY     65  50  58 CALM      29.89F
HANOVER        SUNNY     64  51  62 SW5       29.89F
TAPPAHANNOCK*  SUNNY     65  48  52 CALM      29.89S
CHARLOTTSVILLE SUNNY     64  48  56 CALM      29.87F
ORANGE*        MOSUNNY   64  50  59 SW6       29.89F
LOUISA*        MOSUNNY   64  52  63 CALM      29.87F
FARMVILLE*     MOSUNNY   64  50  59 SW3       29.87F
CREWE*         PTSUNNY   65  49  56 W3        29.89S
FORT PICKETT*  MOSUNNY   64  51  63 W5        29.89F
LUNENBURG*     SUNNY     64  52  65 CALM      29.89F
SOUTH HILL*    SUNNY     68  54  60 SW6       29.96S
LAWRENCEVILLE* SUNNY     65  53  65 NW3       29.90S
ROANOKE RAPIDS SUNNY     64  52  63 W5        29.91F
RALEIGH        MOSUNNY   66  51  58 CALM      29.93F
$$

VAZ088>098-211600-
SOUTHEAST VIRGINIA

CITY           SKY/WX    TMP DP  RH WIND       PRES   REMARKS
NORFOLK        SUNNY     68  52  56 SW6       29.88F
VIRGINIA BEACH MOSUNNY   71  56  58 SW8       29.87F
NORFOLK NAVAL  MOSUNNY   69  53  56 W7G15     29.89F
WEST POINT*    SUNNY     66  51  58 SW3       29.89F
NEWPORT NEWS   SUNNY     69  53  56 NW5       29.88F
LANGLEY AFB    SUNNY     67  55  66 VRB3      29.88F
FORT EUSTIS    SUNNY     65  52  62 VRB3      29.87F
WILLIAMSBURG*  SUNNY     70  55  60 W6        29.89F
HR EXEC AP*    SUNNY     66  55  68 W6        29.90F
FRANKLIN*      SUNNY     66  52  59 W3        29.90F
WAKEFIELD      SUNNY     67  52  58 CALM      29.88F
$$

VAZ020-022-025-037-045-211600-
WEST CENTRAL AND SOUTHWEST VIRGINIA

CITY           SKY/WX    TMP DP  RH WIND       PRES   REMARKS
STAUNTON*      SUNNY     62  46  56 S7        29.90F
HOT SPRINGS VA CLOUDY    48  46  93 W9        29.90F
LYNCHBURG      MOSUNNY   62  49  62 W8        29.92S
DANVILLE       MOSUNNY   65  50  58 W8        29.93S
SOUTH BOSTON*  NOT AVBL
MARTINSVILLE   SUNNY     66  50  55 SW5       29.95F
ROANOKE        MOSUNNY   60  48  64 VRB6      29.93F
BLACKSBURG     CLOUDY    55  52  88 W3        29.95F
DUBLIN*        PTSUNNY   60  49  66 W8        29.95F
MARION*        CLOUDY    54  49  83 W8        29.98S
HILLSVILLE*    PTSUNNY   54  45  72 W10G17    29.96F
RICHLANDS*     CLOUDY    55  50  84 W10       29.97F
WISE*          CLOUDY    52  50  93 W7        30.00S
ABINGDON*      CLOUDY    56  51  84 W9        29.98F
$$

MDZ021>025-VAZ099-100-211600-
SOUTHERN MARYLAND AND THE DELMARVA PENINSULA

CITY           SKY/WX    TMP DP  RH WIND       PRES   REMARKS
PATUXENT RIVER MOSUNNY   66  49  54 W7        29.87F
BAY BRIDGE APT   N/A     61  50  67 CALM      29.88F
LEONARDTOWN    SUNNY     63  48  59 W3        29.88F
DOVER          MOSUNNY   62  54  74 SW5       29.85F
GEORGETOWN     PTSUNNY   65  54  67 SW8       29.88F
EASTON         MOSUNNY   64  54  68 CALM      29.91F
CAMBRIDGE      MOSUNNY   64  50  59 CALM      29.87F
SALISBURY      PTSUNNY   68  55  63 W8        29.87F
OCEAN CITY     SUNNY     67  56  67 W9        29.87F
WALLOPS ISLAND SUNNY     70  57  63 W7        29.87F
ACCOMACK*      SUNNY     68  52  56 W10       29.87F
$$

NCZ012>017-030>032-211600-
EASTERN NORTH CAROLINA

CITY           SKY/WX    TMP DP  RH WIND       PRES   REMARKS
ELIZABETH CITY SUNNY     72  55  55 W8        29.89F
AHOSKIE*       SUNNY     65  54  66 CALM      29.91F
EDENTON*       SUNNY     69  56  64 W8        29.90F
CURRITUCK*     SUNNY     70  53  54 W5        29.89F
KILL DEVIL HLS MOSUNNY   69  60  73 W6        29.89F
MANTEO         MOSUNNY   69  58  68 NW8       29.91F
CAPE HATTERAS  SUNNY     69  62  78 W8        29.92S
TARBORO*       SUNNY     68  55  63 W3        29.92F
GOLDSBORO      SUNNY     69  60  72 CALM      29.90F
WASHINGTON     SUNNY     69  54  58 SW6       29.92F
GREENVILLE     SUNNY     70  55  60 NW6       29.93F
NEW BERN       SUNNY     74  55  51 NW5       29.93F
WILMINGTON     SUNNY     73  54  51 W10       29.93F
$$

VAZ048-211600-
ELSEWHERE

CITY           SKY/WX    TMP DP  RH WIND       PRES   REMARKS
HARRISBURG PA  CLOUDY    54  52  93 W3        29.87S FOG
BALTIMORE      MOSUNNY   63  49  60 VRB3      29.87F
ANNAPOLIS      SUNNY     61  50  67 CALM      29.88F
ANDREWS AFB    SUNNY     64  50  59 NW3       29.87F
WILMINGTON DE  MOSUNNY   61  50  67 VRB5      29.89S
PHILADELPHIA   PTSUNNY   61  51  70 SW3       29.88F
WILDWOOD NJ*   MOSUNNY   64  54  68 SW10      29.88S
ATLANTIC CITY  MOSUNNY   65  53  65 S8        29.86F
HENDERSON NC   SUNNY     66  51  58 W3        29.92F
GREENSBORO     MOSUNNY   66  49  54 VRB6      29.93F
ROCKY MOUNT    SUNNY     67  54  63 W5        29.92F
FAYETTEVILLE   SUNNY     69  54  58 W7        29.93F
CHARLOTTE      MOSUNNY   65  50  58 CALM      29.96F
$$

VAZ100-211600-
MARINE

STATION/POSITION TIME  TEMP    WIND        PRES    WAVE   SWELL
                       AIR SEA DIR/SP/G            HT/PER HT/PER
                 (UTC) (F)     (DEG/KT/KT) (MB)    (FT/S) (FT/S)
44066 TX TWR #4  1500   66 66  200/  8/ 10 1012.3F   4/ 6   3/ 6
CAPE MAY NJ      1500   62 66  250/  9/ 11 1011.0S
LEWES DE         1500   64 63  270/  9/ 11 1011.1F
15NM E FENWICK I 1500   67 66  190/  8/ 10 1011.1F   3/ 6   2/ 6
OCEAN-CITY-INLET 1500   66 65  280/  8/ 10 1011.0S
WACHAPREAGUE VA  1500   68 62  240/  5/ 10 1011.5F
THOMAS POINT MD  1500   60 65   CALM  /  1 1012.8F
GOOSES REEF MD   1500   61      CALM  /  2 1012.5S
COVE POINT MD    1500   62      30/  3/  4 1011.6F
SOLOMONS ISLAND  1500      66                N/A
BISHOPS HEAD MD  1500   61 58  250/  7/  9 1011.1F
PINEY POINT MD   1500          320/  3/  3   N/A
POTOMAC MD       1500   61     260/  8/  8 1011.0F
CAMBRIDGE MD     1500   62 63   10/  3/  4 1011.3F
LEWISETTA VA     1500   62 62  280/  4/  5 1011.3S
RAPPAHANNOCK LGT 1500          250/  7/  8 1012.0F
STINGRAY PT      1500   65     300/  6/  8 1012.3F
YORK RVR RNG VA  1500   64     270/  7/  9 1011.1F
YORKTOWN VA      1500   64 66  270/  4/  5 1011.3F
JAMESTOWN VA     1500   62     320/  6/  8   N/A
DOMINION TERM VA 1500   64     270/  5/  6 1011.9F
KIPTOPEKE VA     1500      69  280/  8/ 11   N/A
CHES BAY BRIDGE  1500   64 68  240/  9/ 10 1011.3F
CHESAPEAKE LGHT  1400   66     240/ 11/ 12 1012.8F
WILLOUBY STN VA  1500   62     250/  8/  9 1010.5F
S CRANEY ISL VA  1500          240/  5/  8 1011.6F
CAPE HENRY BUOY  1400      68                N/A     3/10   2/11
1ST LANDING BUOY 1500   65     260/ 10/ 12 1011.6F
CAPE CHARLES BUO 1500      68                N/A     2/11   2/11
64NM E OF VA BCH 1500   68 69  260/ 10/ 12 1011.8F   3/ 5   2/ 6
DUCK PIER NC     1500   66 69  260/  8/  9 1011.7F
44100 DUCK FRF   1400      71                N/A     2/10   2/13
44056 DUCK FRF   1400                        N/A     2/10   2/11
OREGON INLET NC  1500   67 66  240/  7/  8 1012.5F
HATTERAS NC      1500   68 71  280/ 12/ 14 1013.5S
DIAMOND SHLS NC  1500   70     280/ 12/ 16 1013.2F   3/ 4   2/10
CAPE LOOKOUT NC  1400   70     290/  7/  8 1013.7F
$$


USA.gov is the U.S. government's official web portal to all federal, state and local government web resources and services.